Time,TemperatureF,DewpointF,PressureIn,WindDirection,WindDirectionDegrees,WindSpeedMPH,WindSpeedGustMPH,Humidity,HourlyPrecipIn,Conditions,Clouds,dailyrainin,SoftwareType,DateUTC
2013-09-04 00:01:00,55.6,55.3,29.98,West,271,0.0,0.0,99,0.00,,,0.00,Wunderground v.1.15,2013-09-04 04:01:00,
2013-09-04 00:02:00,55.7,55.7,29.98,West,271,0.0,0.0,100,0.00,,,0.00,Wunderground v.1.15,2013-09-04 04:02:00,
2013-09-04 00:04:00,55.7,55.7,29.98,West,271,0.0,0.0,100,0.00,,,0.00,Wunderground v.1.15,2013-09-04 04:04:00,
2013-09-04 00:05:00,55.7,55.7,29.98,West,272,0.0,0.0,100,0.00,,,0.00,Wunderground v.1.15,2013-09-04 04:05:00,
2013-09-04 00:10:00,55.8,55.8,29.98,West,271,0.0,0.0,100,0.00,,,0.00,Wunderground v.1.15,2013-09-04 04:10:00,
2013-09-04 00:16:00,55.8,55.8,29.98,West,271,0.0,0.0,100,0.00,,,0.00,Wunderground v.1.15,2013-09-04 04:16:00,
2013-09-04 00:21:00,55.7,55.4,29.98,West,271,0.0,0.0,99,0.00,,,0.00,Wunderground v.1.15,2013-09-04 04:21:00,
2013-09-04 00:22:00,55.7,55.4,29.98,West,271,0.0,0.0,99,0.00,,,0.00,Wunderground v.1.15,2013-09-04 04:22:00,
2013-09-04 00:28:00,55.6,55.3,29.98,West,271,0.0,0.0,99,0.00,,,0.00,Wunderground v.1.15,2013-09-04 04:28:00,
2013-09-04 00:33:00,55.4,55.1,29.98,West,271,0.0,0.0,99,0.00,,,0.00,Wunderground v.1.15,2013-09-04 04:33:00,
2013-09-04 00:34:00,55.4,55.1,29.98,West,271,0.0,0.0,99,0.00,,,0.00,Wunderground v.1.15,2013-09-04 04:34:00,
2013-09-04 00:39:00,55.4,55.4,29.98,West,271,0.0,0.0,100,0.00,,,0.00,Wunderground v.1.15,2013-09-04 04:39:00,
2013-09-04 00:45:00,55.3,55.0,29.98,West,271,0.0,0.0,99,0.00,,,0.00,Wunderground v.1.15,2013-09-04 04:45:00,
2013-09-04 00:50:00,55.1,54.8,29.99,West,271,0.0,0.0,99,0.00,,,0.00,Wunderground v.1.15,2013-09-04 04:50:00,
2013-09-04 00:56:00,55.0,55.0,29.99,West,271,0.0,0.0,100,0.00,,,0.00,Wunderground v.1.15,2013-09-04 04:56:00,
2013-09-04 01:01:00,54.9,54.9,29.99,West,271,0.0,0.0,100,0.00,,,0.00,Wunderground v.1.15,2013-09-04 05:01:00,
2013-09-04 01:07:00,55.1,55.1,29.99,West,271,0.0,0.0,100,0.00,,,0.00,Wunderground v.1.15,2013-09-04 05:07:00,
2013-09-04 01:12:00,55.2,55.2,29.99,West,271,0.0,0.0,100,0.00,,,0.00,Wunderground v.1.15,2013-09-04 05:12:00,
2013-09-04 01:17:00,55.1,55.1,29.99,West,272,0.0,0.0,100,0.00,,,0.00,Wunderground v.1.15,2013-09-04 05:17:00,
2013-09-04 01:23:00,54.5,54.2,29.99,West,272,0.0,0.0,99,0.00,,,0.00,Wunderground v.1.15,2013-09-04 05:23:00,
2013-09-04 01:29:00,54.3,54.3,29.99,West,271,0.0,0.0,100,0.00,,,0.00,Wunderground v.1.15,2013-09-04 05:29:00,
2013-09-04 01:34:00,54.1,54.1,29.99,West,271,0.0,0.0,100,0.00,,,0.00,Wunderground v.1.15,2013-09-04 05:34:00,
2013-09-04 01:40:00,53.8,53.5,29.99,SE,136,1.0,1.0,99,0.00,,,0.00,Wunderground v.1.15,2013-09-04 05:40:00,
2013-09-04 01:45:00,53.3,53.0,29.99,SE,136,0.0,1.0,99,0.00,,,0.00,Wunderground v.1.15,2013-09-04 05:45:00,
2013-09-04 01:51:00,53.0,52.7,29.99,SE,136,0.0,0.0,99,0.00,,,0.00,Wunderground v.1.15,2013-09-04 05:51:00,
2013-09-04 01:56:00,52.8,52.8,29.99,SE,136,0.0,0.0,100,0.00,,,0.00,Wunderground v.1.15,2013-09-04 05:56:00,
2013-09-04 02:01:00,52.6,52.6,29.99,SE,136,0.0,0.0,100,0.00,,,0.00,Wunderground v.1.15,2013-09-04 06:01:00,
2013-09-04 02:06:00,52.7,52.7,29.99,SE,136,0.0,0.0,100,0.00,,,0.00,Wunderground v.1.15,2013-09-04 06:06:00,
2013-09-04 02:11:00,53.0,53.0,29.99,SE,136,0.0,0.0,100,0.00,,,0.00,Wunderground v.1.15,2013-09-04 06:11:00,
2013-09-04 02:16:00,52.8,52.8,29.99,SE,136,0.0,0.0,100,0.00,,,0.00,Wunderground v.1.15,2013-09-04 06:16:00,
2013-09-04 02:21:00,52.4,52.4,29.99,SE,136,0.0,0.0,100,0.00,,,0.00,Wunderground v.1.15,2013-09-04 06:21:00,
2013-09-04 02:26:00,52.1,52.1,29.99,SE,136,0.0,0.0,100,0.00,,,0.00,Wunderground v.1.15,2013-09-04 06:26:00,
2013-09-04 02:31:00,51.9,51.9,29.99,SE,136,0.0,0.0,100,0.00,,,0.00,Wunderground v.1.15,2013-09-04 06:31:00,
2013-09-04 02:36:00,51.7,51.7,29.99,SE,136,0.0,0.0,100,0.00,,,0.00,Wunderground v.1.15,2013-09-04 06:36:00,
2013-09-04 02:41:00,51.6,51.6,29.99,SE,136,0.0,0.0,100,0.00,,,0.00,Wunderground v.1.15,2013-09-04 06:41:00,
2013-09-04 02:46:00,51.6,51.6,29.99,SE,136,0.0,0.0,100,0.00,,,0.00,Wunderground v.1.15,2013-09-04 06:46:00,
2013-09-04 02:51:00,51.9,51.9,29.99,SE,136,0.0,0.0,100,0.00,,,0.00,Wunderground v.1.15,2013-09-04 06:51:00,
2013-09-04 02:56:00,51.8,51.8,29.99,SE,136,0.0,0.0,100,0.00,,,0.00,Wunderground v.1.15,2013-09-04 06:56:00,
2013-09-04 03:01:00,51.7,51.7,29.99,SE,136,0.0,0.0,100,0.00,,,0.00,Wunderground v.1.15,2013-09-04 07:01:00,
2013-09-04 03:06:00,51.3,51.3,30.00,SE,136,0.0,0.0,100,0.00,,,0.00,Wunderground v.1.15,2013-09-04 07:06:00,
2013-09-04 03:11:00,51.0,51.0,30.00,SE,136,0.0,0.0,100,0.00,,,0.00,Wunderground v.1.15,2013-09-04 07:11:00,
2013-09-04 03:16:00,51.6,51.6,30.00,SE,136,1.0,1.0,100,0.00,,,0.00,Wunderground v.1.15,2013-09-04 07:16:00,
2013-09-04 03:21:00,52.0,52.0,30.00,SE,136,0.0,1.0,100,0.00,,,0.00,Wunderground v.1.15,2013-09-04 07:21:00,
2013-09-04 03:26:00,52.1,52.1,30.00,SE,136,0.0,1.0,100,0.00,,,0.00,Wunderground v.1.15,2013-09-04 07:26:00,
2013-09-04 03:31:00,52.3,52.3,30.00,SE,136,0.0,0.0,100,0.00,,,0.00,Wunderground v.1.15,2013-09-04 07:31:00,
2013-09-04 03:36:00,52.6,52.6,30.00,SSE,148,0.0,0.0,100,0.00,,,0.00,Wunderground v.1.15,2013-09-04 07:36:00,
2013-09-04 03:41:00,51.7,51.7,30.00,SSE,148,0.0,0.0,100,0.00,,,0.00,Wunderground v.1.15,2013-09-04 07:41:00,
2013-09-04 03:46:00,51.2,51.2,30.00,SSE,148,0.0,0.0,100,0.00,,,0.00,Wunderground v.1.15,2013-09-04 07:46:00,
2013-09-04 03:51:00,50.8,50.8,30.00,SSE,148,0.0,0.0,100,0.00,,,0.00,Wunderground v.1.15,2013-09-04 07:51:00,
2013-09-04 03:56:00,50.8,50.8,30.00,SSE,148,0.0,0.0,100,0.00,,,0.00,Wunderground v.1.15,2013-09-04 07:56:00,
2013-09-04 04:01:00,50.8,50.8,30.01,SSE,148,0.0,0.0,100,0.00,,,0.00,Wunderground v.1.15,2013-09-04 08:01:00,
2013-09-04 04:06:00,50.7,50.7,30.01,SSE,148,0.0,1.0,100,0.00,,,0.00,Wunderground v.1.15,2013-09-04 08:06:00,
2013-09-04 04:11:00,50.6,50.6,30.01,SSE,148,0.0,0.0,100,0.00,,,0.00,Wunderground v.1.15,2013-09-04 08:11:00,
2013-09-04 04:16:00,50.6,50.6,30.01,SSE,148,0.0,0.0,100,0.00,,,0.00,Wunderground v.1.15,2013-09-04 08:16:00,
2013-09-04 04:21:00,50.4,50.4,30.01,SSE,148,0.0,0.0,100,0.00,,,0.00,Wunderground v.1.15,2013-09-04 08:21:00,
2013-09-04 04:26:00,50.2,50.2,30.01,SSE,148,0.0,0.0,100,0.00,,,0.00,Wunderground v.1.15,2013-09-04 08:26:00,
2013-09-04 04:31:00,50.2,50.2,30.01,SSE,148,0.0,0.0,100,0.00,,,0.00,Wunderground v.1.15,2013-09-04 08:31:00,
2013-09-04 04:36:00,50.3,50.3,30.01,SSE,148,0.0,0.0,100,0.00,,,0.00,Wunderground v.1.15,2013-09-04 08:36:00,
2013-09-04 04:41:00,49.9,49.9,30.01,SSE,148,0.0,0.0,100,0.00,,,0.00,Wunderground v.1.15,2013-09-04 08:41:00,
2013-09-04 04:46:00,49.4,49.4,30.01,SSE,148,0.0,0.0,100,0.00,,,0.00,Wunderground v.1.15,2013-09-04 08:46:00,
2013-09-04 04:51:00,49.6,49.6,30.01,SSE,148,0.0,0.0,100,0.00,,,0.00,Wunderground v.1.15,2013-09-04 08:51:00,
2013-09-04 04:56:00,49.5,49.5,30.01,SSE,148,0.0,0.0,100,0.00,,,0.00,Wunderground v.1.15,2013-09-04 08:56:00,
2013-09-04 05:01:00,49.4,49.4,30.02,SSE,148,0.0,0.0,100,0.00,,,0.00,Wunderground v.1.15,2013-09-04 09:01:00,
2013-09-04 05:06:00,49.2,49.2,30.02,SSE,148,0.0,0.0,100,0.00,,,0.00,Wunderground v.1.15,2013-09-04 09:06:00,
2013-09-04 05:11:00,49.1,49.1,30.02,SSE,148,0.0,0.0,100,0.00,,,0.00,Wunderground v.1.15,2013-09-04 09:11:00,
2013-09-04 05:16:00,49.3,49.3,30.02,SSE,148,0.0,0.0,100,0.00,,,0.00,Wunderground v.1.15,2013-09-04 09:16:00,
2013-09-04 05:21:00,49.5,49.5,30.02,SSE,148,0.0,0.0,100,0.00,,,0.00,Wunderground v.1.15,2013-09-04 09:21:00,
2013-09-04 05:26:00,49.6,49.6,30.02,SSE,148,0.0,0.0,100,0.00,,,0.00,Wunderground v.1.15,2013-09-04 09:26:00,
2013-09-04 05:31:00,49.7,49.7,30.02,SSE,148,0.0,0.0,100,0.00,,,0.00,Wunderground v.1.15,2013-09-04 09:31:00,
2013-09-04 05:36:00,49.5,49.5,30.03,SSE,148,0.0,0.0,100,0.00,,,0.00,Wunderground v.1.15,2013-09-04 09:36:00,
2013-09-04 05:41:00,49.2,49.2,30.03,SSE,148,0.0,0.0,100,0.00,,,0.00,Wunderground v.1.15,2013-09-04 09:41:00,
2013-09-04 05:46:00,49.1,49.1,30.03,SSE,148,0.0,0.0,100,0.00,,,0.00,Wunderground v.1.15,2013-09-04 09:46:00,
2013-09-04 05:51:00,48.9,48.9,30.03,SSE,148,0.0,0.0,100,0.00,,,0.00,Wunderground v.1.15,2013-09-04 09:51:00,
2013-09-04 05:56:00,48.8,48.8,30.03,SSE,148,0.0,0.0,100,0.00,,,0.00,Wunderground v.1.15,2013-09-04 09:56:00,
2013-09-04 06:01:00,48.8,48.8,30.03,SSE,148,0.0,0.0,100,0.00,,,0.00,Wunderground v.1.15,2013-09-04 10:01:00,
2013-09-04 06:06:00,49.2,49.2,30.03,SSE,148,0.0,0.0,100,0.00,,,0.00,Wunderground v.1.15,2013-09-04 10:06:00,
2013-09-04 06:11:00,49.4,49.4,30.03,SSE,148,0.0,0.0,100,0.00,,,0.00,Wunderground v.1.15,2013-09-04 10:11:00,
2013-09-04 06:16:00,49.5,49.5,30.03,SSE,148,0.0,0.0,100,0.00,,,0.00,Wunderground v.1.15,2013-09-04 10:16:00,
2013-09-04 06:21:00,49.6,49.6,30.04,SSE,148,0.0,0.0,100,0.00,,,0.00,Wunderground v.1.15,2013-09-04 10:21:00,
2013-09-04 06:26:00,49.7,49.7,30.04,SW,214,0.0,1.0,100,0.00,,,0.01,Wunderground v.1.15,2013-09-04 10:26:00,
2013-09-04 06:31:00,49.6,49.6,30.04,SW,214,0.0,0.0,100,0.00,,,0.01,Wunderground v.1.15,2013-09-04 10:31:00,
2013-09-04 06:36:00,49.7,49.7,30.04,SSW,212,0.0,1.0,100,0.00,,,0.01,Wunderground v.1.15,2013-09-04 10:36:00,
2013-09-04 06:41:00,49.7,49.7,30.04,SSW,192,0.0,0.0,100,0.00,,,0.01,Wunderground v.1.15,2013-09-04 10:41:00,
2013-09-04 06:46:00,49.7,49.7,30.04,South,191,0.0,0.0,100,0.00,,,0.01,Wunderground v.1.15,2013-09-04 10:46:00,
2013-09-04 06:51:00,49.5,49.5,30.04,South,191,0.0,0.0,100,0.00,,,0.01,Wunderground v.1.15,2013-09-04 10:51:00,
2013-09-04 06:56:00,49.8,49.8,30.05,South,191,0.0,0.0,100,0.00,,,0.01,Wunderground v.1.15,2013-09-04 10:56:00,
2013-09-04 07:01:00,50.2,50.2,30.05,South,191,0.0,0.0,100,0.00,,,0.01,Wunderground v.1.15,2013-09-04 11:01:00,
2013-09-04 07:06:00,50.0,50.0,30.05,SSW,192,0.0,0.0,100,0.00,,,0.01,Wunderground v.1.15,2013-09-04 11:06:00,
2013-09-04 07:11:00,50.2,50.2,30.05,South,191,0.0,0.0,100,0.00,,,0.01,Wunderground v.1.15,2013-09-04 11:11:00,
2013-09-04 07:16:00,52.0,52.0,30.05,South,191,0.0,0.0,100,0.00,,,0.01,Wunderground v.1.15,2013-09-04 11:16:00,
2013-09-04 07:21:00,52.5,52.5,30.05,West,264,0.0,1.0,100,0.00,,,0.01,Wunderground v.1.15,2013-09-04 11:21:00,
2013-09-04 07:26:00,52.7,52.7,30.05,West,264,0.0,1.0,100,0.00,,,0.01,Wunderground v.1.15,2013-09-04 11:26:00,
2013-09-04 07:31:00,52.8,52.8,30.05,West,263,0.0,0.0,100,0.00,,,0.01,Wunderground v.1.15,2013-09-04 11:31:00,
2013-09-04 07:36:00,52.6,52.6,30.05,SW,221,0.0,1.0,100,0.00,,,0.01,Wunderground v.1.15,2013-09-04 11:36:00,
2013-09-04 07:41:00,52.7,52.7,30.05,SW,224,0.0,0.0,100,0.00,,,0.01,Wunderground v.1.15,2013-09-04 11:41:00,
2013-09-04 07:46:00,53.1,53.1,30.05,SW,224,0.0,0.0,100,0.00,,,0.01,Wunderground v.1.15,2013-09-04 11:46:00,
2013-09-04 07:51:00,53.5,53.5,30.06,SW,224,0.0,0.0,100,0.00,,,0.01,Wunderground v.1.15,2013-09-04 11:51:00,
2013-09-04 07:56:00,54.8,54.8,30.06,SW,225,0.0,0.0,100,0.00,,,0.01,Wunderground v.1.15,2013-09-04 11:56:00,
2013-09-04 08:01:00,56.1,56.1,30.06,SW,225,0.0,0.0,100,0.00,,,0.01,Wunderground v.1.15,2013-09-04 12:01:00,
2013-09-04 08:06:00,56.1,56.1,30.06,SW,225,0.0,0.0,100,0.00,,,0.01,Wunderground v.1.15,2013-09-04 12:06:00,
2013-09-04 08:11:00,56.7,56.7,30.06,SW,226,0.0,0.0,100,0.00,,,0.01,Wunderground v.1.15,2013-09-04 12:11:00,
2013-09-04 08:16:00,57.7,57.7,30.06,SW,226,0.0,1.0,100,0.00,,,0.01,Wunderground v.1.15,2013-09-04 12:16:00,
2013-09-04 08:21:00,57.9,57.9,30.06,WNW,289,0.0,1.0,100,0.00,,,0.01,Wunderground v.1.15,2013-09-04 12:21:00,
2013-09-04 08:26:00,58.1,58.1,30.06,NW,306,0.0,1.0,100,0.00,,,0.01,Wunderground v.1.15,2013-09-04 12:26:00,
2013-09-04 08:31:00,58.6,58.6,30.06,ENE,72,0.0,1.0,100,0.00,,,0.01,Wunderground v.1.15,2013-09-04 12:31:00,
2013-09-04 08:36:00,59.0,59.0,30.06,WSW,240,1.0,4.0,100,0.00,,,0.01,Wunderground v.1.15,2013-09-04 12:36:00,
2013-09-04 08:41:00,59.1,59.1,30.06,NW,309,1.0,1.0,100,0.00,,,0.01,Wunderground v.1.15,2013-09-04 12:41:00,
2013-09-04 08:46:00,58.7,58.7,30.07,NNE,23,2.0,3.0,100,0.00,,,0.01,Wunderground v.1.15,2013-09-04 12:46:00,
2013-09-04 08:51:00,58.9,58.9,30.07,West,281,0.0,3.0,100,0.00,,,0.01,Wunderground v.1.15,2013-09-04 12:51:00,
2013-09-04 08:56:00,58.7,58.7,30.07,SSW,203,0.0,3.0,100,0.00,,,0.01,Wunderground v.1.15,2013-09-04 12:56:00,
2013-09-04 09:01:00,58.9,58.9,30.07,West,262,2.0,2.0,100,0.00,,,0.01,Wunderground v.1.15,2013-09-04 13:01:00,
2013-09-04 09:06:00,59.0,58.7,30.07,West,278,1.0,4.0,99,0.00,,,0.01,Wunderground v.1.15,2013-09-04 13:06:00,
2013-09-04 09:11:00,59.1,58.5,30.07,NW,315,1.0,5.0,98,0.00,,,0.01,Wunderground v.1.15,2013-09-04 13:11:00,
2013-09-04 09:16:00,59.6,59.3,30.07,West,267,2.0,6.0,99,0.00,,,0.01,Wunderground v.1.15,2013-09-04 13:16:00,
2013-09-04 09:21:00,59.8,59.2,30.08,NNE,22,2.0,3.0,98,0.00,,,0.01,Wunderground v.1.15,2013-09-04 13:21:00,
2013-09-04 09:26:00,60.2,59.1,30.08,West,269,0.0,3.0,96,0.00,,,0.01,Wunderground v.1.15,2013-09-04 13:26:00,
2013-09-04 09:31:00,60.8,59.4,30.08,North,352,3.0,3.0,95,0.00,,,0.01,Wunderground v.1.15,2013-09-04 13:31:00,
2013-09-04 09:36:00,61.1,58.8,30.08,NNW,338,2.0,4.0,92,0.00,,,0.01,Wunderground v.1.15,2013-09-04 13:36:00,
2013-09-04 09:41:00,61.4,58.7,30.08,WNW,297,0.0,6.0,91,0.00,,,0.01,Wunderground v.1.15,2013-09-04 13:41:00,
2013-09-04 09:46:00,61.5,58.2,30.08,WSW,257,1.0,6.0,89,0.00,,,0.01,Wunderground v.1.15,2013-09-04 13:46:00,
2013-09-04 09:51:00,61.9,57.7,30.08,WSW,253,1.0,3.0,86,0.00,,,0.01,Wunderground v.1.15,2013-09-04 13:51:00,
2013-09-04 09:56:00,62.1,57.9,30.08,NW,304,2.0,4.0,86,0.00,,,0.01,Wunderground v.1.15,2013-09-04 13:56:00,
2013-09-04 10:01:00,62.5,57.6,30.08,WNW,294,1.0,4.0,84,0.00,,,0.01,Wunderground v.1.15,2013-09-04 14:01:00,
2013-09-04 10:06:00,62.9,57.3,30.08,WSW,240,1.0,4.0,82,0.00,,,0.01,Wunderground v.1.15,2013-09-04 14:06:00,
2013-09-04 10:11:00,62.9,57.7,30.08,West,273,1.0,2.0,83,0.00,,,0.01,Wunderground v.1.15,2013-09-04 14:11:00,
2013-09-04 10:16:00,63.3,57.4,30.08,NW,306,0.0,4.0,81,0.00,,,0.01,Wunderground v.1.15,2013-09-04 14:16:00,
2013-09-04 10:21:00,63.5,57.9,30.08,North,349,1.0,3.0,82,0.00,,,0.01,Wunderground v.1.15,2013-09-04 14:21:00,
2013-09-04 10:26:00,63.9,57.6,30.08,NNE,25,1.0,5.0,80,0.00,,,0.01,Wunderground v.1.15,2013-09-04 14:26:00,
2013-09-04 10:31:00,64.2,57.2,30.08,NNW,340,3.0,3.0,78,0.00,,,0.01,Wunderground v.1.15,2013-09-04 14:31:00,
2013-09-04 10:36:00,64.6,57.6,30.08,NE,46,3.0,6.0,78,0.00,,,0.01,Wunderground v.1.15,2013-09-04 14:36:00,
2013-09-04 10:41:00,64.3,56.2,30.09,NE,40,3.0,5.0,75,0.00,,,0.01,Wunderground v.1.15,2013-09-04 14:41:00,
2013-09-04 10:46:00,64.6,57.9,30.08,ESE,108,0.0,5.0,79,0.00,,,0.01,Wunderground v.1.15,2013-09-04 14:46:00,
2013-09-04 10:51:00,65.4,57.3,30.08,NNW,345,0.0,3.0,75,0.00,,,0.01,Wunderground v.1.15,2013-09-04 14:51:00,
2013-09-04 10:56:00,66.1,58.3,30.09,WSW,245,3.0,3.0,76,0.00,,,0.01,Wunderground v.1.15,2013-09-04 14:56:00,
2013-09-04 11:01:00,66.3,58.5,30.08,NE,37,1.0,3.0,76,0.00,,,0.01,Wunderground v.1.15,2013-09-04 15:01:00,
2013-09-04 11:06:00,66.8,59.0,30.09,NNW,345,1.0,3.0,76,0.00,,,0.01,Wunderground v.1.15,2013-09-04 15:06:00,
2013-09-04 11:11:00,66.7,58.5,30.09,WNW,297,1.0,4.0,75,0.00,,,0.01,Wunderground v.1.15,2013-09-04 15:11:00,
2013-09-04 11:16:00,66.9,57.6,30.09,SSE,149,1.0,4.0,72,0.00,,,0.01,Wunderground v.1.15,2013-09-04 15:16:00,
2013-09-04 11:21:00,67.1,57.4,30.09,North,9,3.0,3.0,71,0.00,,,0.01,Wunderground v.1.15,2013-09-04 15:21:00,
2013-09-04 11:26:00,66.8,55.5,30.09,NE,44,2.0,4.0,67,0.00,,,0.01,Wunderground v.1.15,2013-09-04 15:26:00,
2013-09-04 11:31:00,66.6,56.1,30.09,WNW,291,0.0,3.0,69,0.00,,,0.01,Wunderground v.1.15,2013-09-04 15:31:00,
2013-09-04 11:36:00,67.1,57.0,30.09,SW,233,3.0,5.0,70,0.00,,,0.01,Wunderground v.1.15,2013-09-04 15:36:00,
2013-09-04 11:41:00,67.5,57.8,30.09,West,265,2.0,4.0,71,0.00,,,0.01,Wunderground v.1.15,2013-09-04 15:41:00,
2013-09-04 11:46:00,67.6,58.2,30.09,ENE,70,0.0,4.0,72,0.00,,,0.01,Wunderground v.1.15,2013-09-04 15:46:00,
2013-09-04 11:51:00,68.0,58.6,30.09,WSW,250,2.0,2.0,72,0.00,,,0.01,Wunderground v.1.15,2013-09-04 15:51:00,
2013-09-04 11:56:00,68.6,58.0,30.08,NW,305,1.0,3.0,69,0.00,,,0.01,Wunderground v.1.15,2013-09-04 15:56:00,
2013-09-04 12:01:00,69.0,57.2,30.09,WNW,287,2.0,3.0,66,0.00,,,0.01,Wunderground v.1.15,2013-09-04 16:01:00,
2013-09-04 12:06:00,69.0,57.6,30.08,SW,226,3.0,4.0,67,0.00,,,0.01,Wunderground v.1.15,2013-09-04 16:06:00,
2013-09-04 12:11:00,68.9,56.6,30.09,SW,225,4.0,6.0,65,0.00,,,0.01,Wunderground v.1.15,2013-09-04 16:11:00,
2013-09-04 12:16:00,68.8,57.8,30.09,NW,305,2.0,6.0,68,0.00,,,0.01,Wunderground v.1.15,2013-09-04 16:16:00,
2013-09-04 12:21:00,69.0,57.6,30.09,SW,225,2.0,2.0,67,0.00,,,0.01,Wunderground v.1.15,2013-09-04 16:21:00,
2013-09-04 12:26:00,69.1,56.4,30.09,SW,229,5.0,5.0,64,0.00,,,0.01,Wunderground v.1.15,2013-09-04 16:26:00,
2013-09-04 12:31:00,69.4,57.5,30.09,NE,49,2.0,3.0,66,0.00,,,0.01,Wunderground v.1.15,2013-09-04 16:31:00,
2013-09-04 12:36:00,69.8,57.1,30.08,SW,224,1.0,4.0,64,0.00,,,0.01,Wunderground v.1.15,2013-09-04 16:36:00,
2013-09-04 12:41:00,69.7,56.1,30.08,South,178,2.0,2.0,62,0.00,,,0.01,Wunderground v.1.15,2013-09-04 16:41:00,
2013-09-04 12:46:00,69.8,56.2,30.08,East,98,2.0,5.0,62,0.00,,,0.01,Wunderground v.1.15,2013-09-04 16:46:00,
2013-09-04 12:51:00,70.1,55.6,30.08,ENE,70,0.0,2.0,60,0.00,,,0.01,Wunderground v.1.15,2013-09-04 16:51:00,
2013-09-04 12:56:00,69.8,53.9,30.08,NNE,32,0.0,4.0,57,0.00,,,0.01,Wunderground v.1.15,2013-09-04 16:56:00,
2013-09-04 13:01:00,70.2,55.2,30.08,North,351,1.0,2.0,59,0.00,,,0.01,Wunderground v.1.15,2013-09-04 17:01:00,
2013-09-04 13:06:00,70.7,55.2,30.08,WNW,301,5.0,5.0,58,0.00,,,0.01,Wunderground v.1.15,2013-09-04 17:06:00,
2013-09-04 13:11:00,70.6,54.6,30.08,WSW,256,2.0,2.0,57,0.00,,,0.01,Wunderground v.1.15,2013-09-04 17:11:00,
2013-09-04 13:16:00,70.9,53.9,30.08,NW,313,3.0,4.0,55,0.00,,,0.01,Wunderground v.1.15,2013-09-04 17:16:00,
2013-09-04 13:21:00,71.0,54.0,30.08,West,262,0.0,2.0,55,0.00,,,0.01,Wunderground v.1.15,2013-09-04 17:21:00,
2013-09-04 13:26:00,71.4,52.9,30.08,ESE,122,2.0,4.0,52,0.00,,,0.01,Wunderground v.1.15,2013-09-04 17:26:00,
2013-09-04 13:31:00,71.8,53.7,30.08,East,98,1.0,4.0,53,0.00,,,0.01,Wunderground v.1.15,2013-09-04 17:31:00,
2013-09-04 13:36:00,72.1,57.0,30.08,WNW,293,0.0,4.0,59,0.00,,,0.01,Wunderground v.1.15,2013-09-04 17:36:00,
2013-09-04 13:41:00,72.8,57.2,30.08,North,10,2.0,4.0,58,0.00,,,0.01,Wunderground v.1.15,2013-09-04 17:41:00,
2013-09-04 13:50:00,73.3,57.6,30.08,NNE,23,2.0,5.0,58,0.00,,,0.01,Wunderground v.1.15,2013-09-04 17:50:00,
2013-09-04 13:55:00,73.2,57.5,30.08,West,259,4.0,6.0,58,0.00,,,0.01,Wunderground v.1.15,2013-09-04 17:55:00,
2013-09-04 14:00:00,72.6,56.0,30.08,WNW,289,2.0,6.0,56,0.00,,,0.01,Wunderground v.1.15,2013-09-04 18:00:00,
2013-09-04 14:05:00,72.5,57.4,30.07,ESE,113,2.0,3.0,59,0.00,,,0.01,Wunderground v.1.15,2013-09-04 18:05:00,
2013-09-04 14:10:00,72.8,57.2,30.07,West,271,2.0,5.0,58,0.00,,,0.01,Wunderground v.1.15,2013-09-04 18:10:00,
2013-09-04 14:15:00,72.9,58.2,30.07,NW,311,3.0,3.0,60,0.00,,,0.01,Wunderground v.1.15,2013-09-04 18:15:00,
2013-09-04 14:20:00,72.9,57.3,30.07,NNW,338,1.0,4.0,58,0.00,,,0.01,Wunderground v.1.15,2013-09-04 18:20:00,
2013-09-04 14:25:00,73.0,57.8,30.07,North,349,3.0,4.0,59,0.00,,,0.01,Wunderground v.1.15,2013-09-04 18:25:00,
2013-09-04 14:30:00,72.9,58.2,30.07,West,266,1.0,4.0,60,0.00,,,0.01,Wunderground v.1.15,2013-09-04 18:30:00,
2013-09-04 14:35:00,73.4,59.6,30.07,NW,311,2.0,5.0,62,0.00,,,0.01,Wunderground v.1.15,2013-09-04 18:35:00,
2013-09-04 14:40:00,73.4,58.7,30.07,SSE,160,2.0,5.0,60,0.00,,,0.01,Wunderground v.1.15,2013-09-04 18:40:00,
2013-09-04 14:45:00,74.0,60.2,30.07,West,276,3.0,4.0,62,0.00,,,0.01,Wunderground v.1.15,2013-09-04 18:45:00,
2013-09-04 14:50:00,73.9,59.1,30.07,SSW,198,1.0,2.0,60,0.00,,,0.01,Wunderground v.1.15,2013-09-04 18:50:00,
2013-09-04 14:55:00,73.9,59.1,30.07,NNE,25,2.0,7.0,60,0.00,,,0.01,Wunderground v.1.15,2013-09-04 18:55:00,
2013-09-04 15:00:00,74.0,60.2,30.07,SW,229,1.0,2.0,62,0.00,,,0.01,Wunderground v.1.15,2013-09-04 19:00:00,
2013-09-04 15:05:00,74.2,60.3,30.07,West,266,3.0,6.0,62,0.00,,,0.01,Wunderground v.1.15,2013-09-04 19:05:00,
2013-09-04 15:10:00,73.5,59.2,30.07,WNW,297,3.0,3.0,61,0.00,,,0.01,Wunderground v.1.15,2013-09-04 19:10:00,
2013-09-04 15:15:00,73.2,61.2,30.07,ESE,120,1.0,4.0,66,0.00,,,0.01,Wunderground v.1.15,2013-09-04 19:15:00,
2013-09-04 15:20:00,73.4,60.5,30.06,WSW,240,2.0,10.0,64,0.00,,,0.01,Wunderground v.1.15,2013-09-04 19:20:00,
2013-09-04 15:25:00,73.6,59.8,30.06,NW,311,2.0,6.0,62,0.00,,,0.01,Wunderground v.1.15,2013-09-04 19:25:00,
2013-09-04 15:30:00,73.7,59.4,30.06,West,262,1.0,6.0,61,0.00,,,0.01,Wunderground v.1.15,2013-09-04 19:30:00,
2013-09-04 15:35:00,73.8,60.9,30.06,SSW,195,4.0,7.0,64,0.00,,,0.01,Wunderground v.1.15,2013-09-04 19:35:00,
2013-09-04 15:40:00,73.9,61.0,30.06,SE,143,1.0,7.0,64,0.00,,,0.01,Wunderground v.1.15,2013-09-04 19:40:00,
2013-09-04 15:45:00,73.9,59.6,30.06,West,259,1.0,6.0,61,0.00,,,0.01,Wunderground v.1.15,2013-09-04 19:45:00,
2013-09-04 15:50:00,74.4,61.4,30.06,WNW,285,0.0,6.0,64,0.00,,,0.01,Wunderground v.1.15,2013-09-04 19:50:00,
2013-09-04 15:55:00,74.4,60.5,30.06,SW,222,4.0,4.0,62,0.00,,,0.01,Wunderground v.1.15,2013-09-04 19:55:00,
2013-09-04 16:00:00,74.1,60.7,30.06,SW,224,3.0,6.0,63,0.00,,,0.01,Wunderground v.1.15,2013-09-04 20:00:00,
2013-09-04 16:05:00,73.9,60.1,30.06,SW,217,3.0,6.0,62,0.00,,,0.01,Wunderground v.1.15,2013-09-04 20:05:00,
2013-09-04 16:10:00,73.9,60.1,30.06,SSW,204,2.0,4.0,62,0.00,,,0.01,Wunderground v.1.15,2013-09-04 20:10:00,
2013-09-04 16:15:00,74.1,60.2,30.06,SSW,200,4.0,6.0,62,0.00,,,0.01,Wunderground v.1.15,2013-09-04 20:15:00,
2013-09-04 16:20:00,73.9,59.1,30.06,NE,47,6.0,6.0,60,0.00,,,0.01,Wunderground v.1.15,2013-09-04 20:20:00,
2013-09-04 16:25:00,73.7,59.9,30.06,WSW,256,1.0,9.0,62,0.00,,,0.01,Wunderground v.1.15,2013-09-04 20:25:00,
2013-09-04 16:30:00,73.8,60.4,30.06,WNW,303,3.0,6.0,63,0.00,,,0.01,Wunderground v.1.15,2013-09-04 20:30:00,
2013-09-04 16:35:00,73.5,60.1,30.06,WNW,297,0.0,6.0,63,0.00,,,0.01,Wunderground v.1.15,2013-09-04 20:35:00,
2013-09-04 16:40:00,73.7,60.3,30.06,NNW,343,2.0,3.0,63,0.00,,,0.01,Wunderground v.1.15,2013-09-04 20:40:00,
2013-09-04 16:45:00,73.8,61.3,30.06,SSW,200,2.0,3.0,65,0.00,,,0.01,Wunderground v.1.15,2013-09-04 20:45:00,
2013-09-04 16:50:00,74.2,60.8,30.06,NNW,333,2.0,3.0,63,0.00,,,0.01,Wunderground v.1.15,2013-09-04 20:50:00,
2013-09-04 16:55:00,74.2,59.9,30.06,WNW,290,2.0,5.0,61,0.00,,,0.01,Wunderground v.1.15,2013-09-04 20:55:00,
2013-09-04 17:00:00,74.1,60.7,30.06,West,274,1.0,2.0,63,0.00,,,0.01,Wunderground v.1.15,2013-09-04 21:00:00,
2013-09-04 17:05:00,74.2,60.8,30.07,West,270,3.0,6.0,63,0.00,,,0.01,Wunderground v.1.15,2013-09-04 21:05:00,
2013-09-04 17:10:00,73.4,60.9,30.07,WSW,250,0.0,2.0,65,0.00,,,0.01,Wunderground v.1.15,2013-09-04 21:10:00,
2013-09-04 17:15:00,72.4,60.0,30.06,WSW,252,1.0,4.0,65,0.00,,,0.01,Wunderground v.1.15,2013-09-04 21:15:00,
2013-09-04 17:20:00,71.9,60.3,30.07,WNW,300,2.0,2.0,67,0.00,,,0.01,Wunderground v.1.15,2013-09-04 21:20:00,
2013-09-04 17:25:00,71.6,60.9,30.07,North,352,0.0,4.0,69,0.00,,,0.01,Wunderground v.1.15,2013-09-04 21:25:00,
2013-09-04 17:30:00,72.5,60.9,30.06,NW,314,0.0,1.0,67,0.00,,,0.01,Wunderground v.1.15,2013-09-04 21:30:00,
2013-09-04 17:35:00,73.3,60.8,30.06,ENE,72,0.0,2.0,65,0.00,,,0.01,Wunderground v.1.15,2013-09-04 21:35:00,
2013-09-04 17:40:00,74.2,61.2,30.06,NW,307,0.0,1.0,64,0.00,,,0.01,Wunderground v.1.15,2013-09-04 21:40:00,
2013-09-04 17:45:00,73.9,61.4,30.06,WSW,239,0.0,5.0,65,0.00,,,0.01,Wunderground v.1.15,2013-09-04 21:45:00,
2013-09-04 17:50:00,74.4,62.7,30.06,NNE,13,2.0,5.0,67,0.00,,,0.01,Wunderground v.1.15,2013-09-04 21:50:00,
2013-09-04 17:55:00,73.8,60.9,30.06,NW,323,5.0,6.0,64,0.00,,,0.01,Wunderground v.1.15,2013-09-04 21:55:00,
2013-09-04 18:00:00,73.3,61.7,30.06,NW,309,2.0,3.0,67,0.00,,,0.01,Wunderground v.1.15,2013-09-04 22:00:00,
2013-09-04 18:05:00,73.2,61.2,30.06,West,266,1.0,4.0,66,0.00,,,0.01,Wunderground v.1.15,2013-09-04 22:05:00,
2013-09-04 18:10:00,72.8,61.6,30.06,WSW,258,3.0,3.0,68,0.00,,,0.01,Wunderground v.1.15,2013-09-04 22:10:00,
2013-09-04 18:15:00,72.6,61.8,30.06,WSW,240,2.0,4.0,69,0.00,,,0.01,Wunderground v.1.15,2013-09-04 22:15:00,
2013-09-04 18:20:00,72.5,61.3,30.06,NW,304,3.0,3.0,68,0.00,,,0.01,Wunderground v.1.15,2013-09-04 22:20:00,
2013-09-04 18:25:00,72.2,61.9,30.06,WSW,239,1.0,4.0,70,0.00,,,0.01,Wunderground v.1.15,2013-09-04 22:25:00,
2013-09-04 18:30:00,72.3,62.0,30.07,WNW,291,1.0,3.0,70,0.00,,,0.01,Wunderground v.1.15,2013-09-04 22:30:00,
2013-09-04 18:35:00,72.3,62.0,30.07,SW,217,1.0,3.0,70,0.00,,,0.01,Wunderground v.1.15,2013-09-04 22:35:00,
2013-09-04 18:40:00,71.8,61.9,30.07,SE,136,0.0,1.0,71,0.00,,,0.01,Wunderground v.1.15,2013-09-04 22:40:00,
2013-09-04 18:45:00,71.6,62.1,30.07,WSW,249,1.0,4.0,72,0.00,,,0.01,Wunderground v.1.15,2013-09-04 22:45:00,
2013-09-04 18:50:00,70.9,61.4,30.07,SW,231,0.0,2.0,72,0.00,,,0.01,Wunderground v.1.15,2013-09-04 22:50:00,
2013-09-04 18:55:00,70.1,61.4,30.06,WSW,256,1.0,3.0,74,0.00,,,0.01,Wunderground v.1.15,2013-09-04 22:55:00,
2013-09-04 19:00:00,69.8,61.5,30.06,WSW,249,0.0,1.0,75,0.00,,,0.01,Wunderground v.1.15,2013-09-04 23:00:00,
2013-09-04 19:05:00,69.4,61.5,30.06,West,260,0.0,3.0,76,0.00,,,0.01,Wunderground v.1.15,2013-09-04 23:05:00,
2013-09-04 19:10:00,68.6,61.1,30.07,WSW,247,0.0,1.0,77,0.00,,,0.01,Wunderground v.1.15,2013-09-04 23:10:00,
2013-09-04 19:15:00,68.1,61.3,30.07,West,262,0.0,2.0,79,0.00,,,0.01,Wunderground v.1.15,2013-09-04 23:15:00,
2013-09-04 19:20:00,67.6,61.6,30.07,WSW,242,1.0,1.0,81,0.00,,,0.01,Wunderground v.1.15,2013-09-04 23:20:00,
2013-09-04 19:25:00,67.1,61.4,30.07,NNW,345,0.0,1.0,82,0.00,,,0.01,Wunderground v.1.15,2013-09-04 23:25:00,
2013-09-04 19:30:00,66.6,61.3,30.07,SW,235,0.0,1.0,83,0.00,,,0.01,Wunderground v.1.15,2013-09-04 23:30:00,
2013-09-04 19:35:00,66.2,61.2,30.07,SW,235,0.0,1.0,84,0.00,,,0.01,Wunderground v.1.15,2013-09-04 23:35:00,
2013-09-04 19:40:00,65.8,61.2,30.07,WNW,294,0.0,0.0,85,0.00,,,0.01,Wunderground v.1.15,2013-09-04 23:40:00,
2013-09-04 19:45:00,65.5,60.9,30.07,WNW,283,0.0,1.0,85,0.00,,,0.01,Wunderground v.1.15,2013-09-04 23:45:00,
2013-09-04 19:50:00,65.1,60.5,30.07,WNW,283,0.0,0.0,85,0.00,,,0.01,Wunderground v.1.15,2013-09-04 23:50:00,
2013-09-04 19:55:00,64.8,60.5,30.07,SW,224,0.0,1.0,86,0.00,,,0.01,Wunderground v.1.15,2013-09-04 23:55:00,
2013-09-04 20:00:00,64.5,60.5,30.08,SW,225,0.0,0.0,87,0.00,,,0.01,Wunderground v.1.15,2013-09-05 00:00:00,
2013-09-04 20:05:00,64.1,60.5,30.08,SW,225,0.0,1.0,88,0.00,,,0.01,Wunderground v.1.15,2013-09-05 00:05:00,
2013-09-04 20:10:00,63.8,60.2,30.08,NW,323,0.0,0.0,88,0.00,,,0.01,Wunderground v.1.15,2013-09-05 00:10:00,
2013-09-04 20:15:00,63.7,60.4,30.08,NW,323,0.0,0.0,89,0.00,,,0.01,Wunderground v.1.15,2013-09-05 00:15:00,
2013-09-04 20:20:00,63.4,60.1,30.08,NW,323,0.0,0.0,89,0.00,,,0.01,Wunderground v.1.15,2013-09-05 00:20:00,
2013-09-04 20:25:00,63.3,60.0,30.08,NW,324,0.0,1.0,89,0.00,,,0.01,Wunderground v.1.15,2013-09-05 00:25:00,
2013-09-04 20:30:00,63.1,59.8,30.08,NW,324,0.0,0.0,89,0.00,,,0.01,Wunderground v.1.15,2013-09-05 00:30:00,
2013-09-04 20:35:00,62.8,59.5,30.08,North,5,0.0,1.0,89,0.00,,,0.01,Wunderground v.1.15,2013-09-05 00:35:00,
2013-09-04 20:40:00,62.5,59.2,30.08,North,1,0.0,0.0,89,0.00,,,0.01,Wunderground v.1.15,2013-09-05 00:40:00,
2013-09-04 20:45:00,62.2,59.2,30.08,North,359,0.0,1.0,90,0.00,,,0.01,Wunderground v.1.15,2013-09-05 00:45:00,
2013-09-04 20:50:00,61.8,58.8,30.08,WNW,300,0.0,0.0,90,0.00,,,0.01,Wunderground v.1.15,2013-09-05 00:50:00,
2013-09-04 20:55:00,61.5,58.8,30.09,WNW,300,0.0,1.0,91,0.00,,,0.01,Wunderground v.1.15,2013-09-05 00:55:00,
2013-09-04 21:00:00,61.2,58.6,30.09,WNW,300,0.0,0.0,91,0.00,,,0.01,Wunderground v.1.15,2013-09-05 01:00:00,
2013-09-04 21:05:00,60.9,58.6,30.09,WNW,300,0.0,1.0,92,0.00,,,0.01,Wunderground v.1.15,2013-09-05 01:05:00,
2013-09-04 21:10:00,60.7,58.4,30.09,WNW,300,0.0,0.0,92,0.00,,,0.01,Wunderground v.1.15,2013-09-05 01:10:00,
2013-09-04 21:15:00,60.4,58.1,30.09,WNW,300,0.0,1.0,92,0.00,,,0.01,Wunderground v.1.15,2013-09-05 01:15:00,
2013-09-04 21:20:00,60.2,58.2,30.10,WNW,300,0.0,0.0,93,0.00,,,0.01,Wunderground v.1.15,2013-09-05 01:20:00,
2013-09-04 21:25:00,59.9,58.2,30.10,WNW,300,0.0,0.0,94,0.00,,,0.01,Wunderground v.1.15,2013-09-05 01:25:00,
2013-09-04 21:30:00,59.7,58.0,30.10,WNW,300,0.0,0.0,94,0.00,,,0.01,Wunderground v.1.15,2013-09-05 01:30:00,
2013-09-04 21:35:00,59.4,57.7,30.10,WNW,300,0.0,0.0,94,0.00,,,0.01,Wunderground v.1.15,2013-09-05 01:35:00,
2013-09-04 21:40:00,59.1,57.7,30.10,WNW,300,0.0,0.0,95,0.00,,,0.01,Wunderground v.1.15,2013-09-05 01:40:00,
2013-09-04 21:45:00,58.7,57.3,30.10,WNW,300,0.0,0.0,95,0.00,,,0.01,Wunderground v.1.15,2013-09-05 01:45:00,
2013-09-04 21:50:00,58.4,57.0,30.10,WNW,300,0.0,0.0,95,0.00,,,0.01,Wunderground v.1.15,2013-09-05 01:50:00,
2013-09-04 21:55:00,58.1,57.0,30.10,WNW,300,0.0,0.0,96,0.00,,,0.01,Wunderground v.1.15,2013-09-05 01:55:00,
2013-09-04 22:00:00,58.0,56.9,30.10,WNW,300,0.0,0.0,96,0.00,,,0.01,Wunderground v.1.15,2013-09-05 02:00:00,
2013-09-04 22:05:00,58.0,57.2,30.10,WNW,300,0.0,1.0,97,0.00,,,0.01,Wunderground v.1.15,2013-09-05 02:05:00,
2013-09-04 22:10:00,57.9,57.1,30.10,WNW,300,0.0,0.0,97,0.00,,,0.01,Wunderground v.1.15,2013-09-05 02:10:00,
2013-09-04 22:15:00,57.7,56.9,30.10,WNW,300,0.0,0.0,97,0.00,,,0.01,Wunderground v.1.15,2013-09-05 02:15:00,
2013-09-04 22:20:00,57.4,56.6,30.10,WNW,300,0.0,0.0,97,0.00,,,0.01,Wunderground v.1.15,2013-09-05 02:20:00,
2013-09-04 22:25:00,57.1,56.3,30.11,WNW,300,0.0,0.0,97,0.00,,,0.01,Wunderground v.1.15,2013-09-05 02:25:00,
2013-09-04 22:30:00,57.0,56.4,30.11,WNW,300,0.0,0.0,98,0.00,,,0.01,Wunderground v.1.15,2013-09-05 02:30:00,
2013-09-04 22:35:00,56.9,56.3,30.11,WNW,299,0.0,0.0,98,0.00,,,0.01,Wunderground v.1.15,2013-09-05 02:35:00,
2013-09-04 22:40:00,56.9,56.3,30.11,WNW,300,0.0,0.0,98,0.00,,,0.01,Wunderground v.1.15,2013-09-05 02:40:00,
2013-09-04 22:45:00,57.0,56.4,30.11,WNW,300,0.0,0.0,98,0.00,,,0.01,Wunderground v.1.15,2013-09-05 02:45:00,
2013-09-04 22:50:00,57.0,56.4,30.11,WNW,300,0.0,0.0,98,0.00,,,0.01,Wunderground v.1.15,2013-09-05 02:50:00,
2013-09-04 22:55:00,57.0,56.7,30.11,WNW,300,0.0,0.0,99,0.00,,,0.01,Wunderground v.1.15,2013-09-05 02:55:00,
2013-09-04 23:00:00,57.0,56.7,30.11,WNW,300,0.0,0.0,99,0.00,,,0.01,Wunderground v.1.15,2013-09-05 03:00:00,
2013-09-04 23:05:00,57.1,56.8,30.11,WNW,300,0.0,0.0,99,0.00,,,0.01,Wunderground v.1.15,2013-09-05 03:05:00,
2013-09-04 23:10:00,57.1,56.8,30.11,WNW,300,0.0,0.0,99,0.00,,,0.01,Wunderground v.1.15,2013-09-05 03:10:00,
2013-09-04 23:15:00,57.0,56.7,30.11,WNW,300,0.0,0.0,99,0.00,,,0.01,Wunderground v.1.15,2013-09-05 03:15:00,
2013-09-04 23:20:00,57.2,56.9,30.11,WNW,300,0.0,0.0,99,0.00,,,0.01,Wunderground v.1.15,2013-09-05 03:20:00,
2013-09-04 23:25:00,57.0,56.7,30.11,WNW,300,0.0,0.0,99,0.00,,,0.01,Wunderground v.1.15,2013-09-05 03:25:00,
2013-09-04 23:30:00,56.5,55.9,30.11,WNW,300,0.0,0.0,98,0.00,,,0.01,Wunderground v.1.15,2013-09-05 03:30:00,
2013-09-04 23:35:00,56.2,55.9,30.12,WNW,300,0.0,0.0,99,0.00,,,0.01,Wunderground v.1.15,2013-09-05 03:35:00,
2013-09-04 23:40:00,56.1,55.8,30.12,WNW,300,0.0,0.0,99,0.00,,,0.01,Wunderground v.1.15,2013-09-05 03:40:00,
2013-09-04 23:45:00,56.1,55.8,30.12,WNW,299,0.0,0.0,99,0.00,,,0.01,Wunderground v.1.15,2013-09-05 03:45:00,
2013-09-04 23:50:00,56.1,55.8,30.12,WNW,300,0.0,0.0,99,0.00,,,0.01,Wunderground v.1.15,2013-09-05 03:50:00,
2013-09-04 23:55:00,56.1,55.8,30.12,WNW,300,0.0,0.0,99,0.00,,,0.01,Wunderground v.1.15,2013-09-05 03:55:00,